FW9546 Weather Reports


time (UTC)temp
C
wind
direction
speed
KPH
gust
KPH
rain 1hr
cm
rain 24hr
cm
rain mn
cm
humidity
%
barometer
mb
20260503194449 26 194 4.8 8.0 0.00 0.00 0.00 47 1020.3
20260503193944 25 196 4.8 6.4 0.00 0.00 0.00 48 1020.6
20260503193439 25 147 0.0 4.8 0.00 0.00 0.00 49 1020.8
20260503192935 25 245 0.0 4.8 0.00 0.00 0.00 47 1020.6
20260503192432 24 251 0.0 4.8 0.00 0.00 0.00 48 1020.7
20260503191927 24 57 0.0 8.0 0.00 0.00 0.00 48 1020.7
20260503191425 25 3 1.6 4.8 0.00 0.00 0.00 48 1020.7
20260503190921 24 69 4.8 4.8 0.00 0.00 0.00 49 1020.9
20260503190419 24 145 1.6 4.8 0.00 0.00 0.00 48 1021.0
20260503185916 24 92 3.2 8.0 0.00 0.00 0.00 49 1021.0
20260503185412 23 86 1.6 4.8 0.00 0.00 0.00 50 1021.1
20260503184911 23 30 4.8 4.8 0.00 0.00 0.00 52 1020.9
20260503184408 23 126 3.2 8.0 0.00 0.00 0.00 51 1021.0
20260503183905 24 22 3.2 3.2 0.00 0.00 0.00 49 1021.0
20260503183401 24 142 6.4 8.0 0.00 0.00 0.00 50 1021.1
20260503182858 23 287 0.0 1.6 0.00 0.00 0.00 51 1021.1
20260503182357 23 38 3.2 8.0 0.00 0.00 0.00 53 1021.2
20260503181853 23 87 4.8 6.4 0.00 0.00 0.00 52 1021.2
20260503181351 22 158 4.8 6.4 0.00 0.00 0.00 55 1021.3
20260503180847 23 3 0.0 4.8 0.00 0.00 0.00 53 1021.2
20260503180345 23 71 4.8 8.0 0.00 0.00 0.00 56 1021.1
20260503175842 22 83 4.8 6.4 0.00 0.00 0.00 55 1021.3
20260503175340 22 103 4.8 4.8 0.00 0.00 0.00 56 1021.4
20260503174835 21 27 4.8 9.7 0.00 0.00 0.00 60 1021.4
20260503174333 22 230 1.6 6.4 0.00 0.00 0.00 56 1021.7
20260503173828 21 260 3.2 6.4 0.00 0.00 0.00 60 1021.2
20260503173325 21 29 1.6 3.2 0.00 0.00 0.00 59 1021.4
20260503172821 21 31 4.8 8.0 0.00 0.00 0.00 59 1021.6
20260503172319 22 82 4.8 4.8 0.00 0.00 0.00 59 1021.6
20260503171815 21 110 1.6 3.2 0.00 0.00 0.00 57 1021.7
20260503171312 22 112 4.8 6.4 0.00 0.00 0.00 58 1021.6
20260503170809 21 0 0.0 1.6 0.00 0.00 0.00 60 1021.7
20260503170306 21 79 4.8 4.8 0.00 0.00 0.00 59 1021.7
20260503150658 13 110 0.0 8.0 0.00 0.00 0.00 92 1022.1
20260503150154 13 58 3.2 6.4 0.00 0.00 0.00 93 1022.0
20260503140119 11 67 1.6 4.8 0.00 0.00 0.00 98 1021.9
20260503131048 10 88 3.2 3.2 0.00 0.00 0.00 98 1022.0
20260503130545 10 129 3.2 3.2 0.00 0.00 0.00 98 1021.9
20260503110435 10 264 1.6 1.6 0.00 0.00 0.00 97 1022.0
20260503090321 11 7 0.0 1.6 0.00 0.00 0.00 96 1022.4
20260503081248 11 229 0.0 3.2 0.00 0.00 0.00 94 1022.4
20260503080744 11 89 0.0 3.2 0.00 0.00 0.00 93 1022.7
20260503080242 11 202 0.0 3.2 0.00 0.00 0.00 93 1022.5
20260503072718 12 272 3.2 4.8 0.00 0.00 0.00 92 1022.3
20260503072215 12 107 0.0 3.2 0.00 0.00 0.00 92 1022.2
20260503071712 12 327 0.0 3.2 0.00 0.00 0.00 92 1022.4
20260503071209 12 304 0.0 3.2 0.00 0.00 0.00 91 1022.1
20260503070705 12 196 0.0 1.6 0.00 0.00 0.00 91 1022.3
20260503070204 12 63 1.6 3.2 0.00 0.00 0.00 90 1022.1
20260503060127 13 243 0.0 3.2 0.00 0.00 0.00 87 1022.1
20260503055119 13 292 3.2 3.2 0.00 0.00 0.00 86 1022.1
20260503054615 13 285 1.6 3.2 0.00 0.00 0.00 86 1022.2
20260503054112 13 261 0.0 3.2 0.00 0.00 0.00 86 1022.1
20260503053610 13 257 1.6 1.6 0.00 0.00 0.00 86 1022.4
20260503053108 13 292 0.0 3.2 0.00 0.00 0.00 85 1022.2
20260503052604 13 341 1.6 1.6 0.00 0.00 0.00 85 1022.2
20260503052101 13 253 1.6 3.2 0.00 0.00 0.00 84 1022.1
20260503051556 13 269 0.0 3.2 0.00 0.00 0.00 83 1022.1
20260503051054 13 243 1.6 3.2 0.00 0.00 0.00 83 1022.0
20260503050549 14 263 0.0 3.2 0.00 0.00 0.00 82 1022.1
20260503050047 14 214 1.6 3.2 0.00 0.00 0.00 82 1022.1
20260503045544 14 286 1.6 3.2 0.00 0.00 0.00 81 1022.2
20260503045041 14 277 3.2 3.2 0.00 0.00 0.00 80 1022.3
20260503044538 14 269 0.0 1.6 0.00 0.00 0.00 80 1021.8
20260503044036 15 89 0.0 1.6 0.00 0.00 0.00 78 1022.0
20260503043532 15 253 0.0 1.6 0.00 0.00 0.00 78 1022.1
20260503043028 15 304 0.0 3.2 0.00 0.00 0.00 77 1021.7
20260503042526 15 31 0.0 1.6 0.00 0.00 0.00 77 1021.5
20260503042021 15 247 1.6 3.2 0.00 0.00 0.00 75 1021.8
20260503041519 15 38 0.0 3.2 0.00 0.00 0.00 75 1021.7
20260503041016 15 263 1.6 3.2 0.00 0.00 0.00 73 1021.3
20260503040514 16 233 1.6 3.2 0.00 0.00 0.00 73 1021.6
20260503040011 16 223 1.6 1.6 0.00 0.00 0.00 72 1021.4
20260503035507 16 41 0.0 1.6 0.00 0.00 0.00 71 1021.1
20260503035005 16 74 0.0 3.2 0.00 0.00 0.00 70 1021.5
20260503034502 16 58 1.6 3.2 0.00 0.00 0.00 70 1021.3
20260503033959 17 132 0.0 1.6 0.00 0.00 0.00 68 1021.2
20260503033456 17 115 0.0 3.2 0.00 0.00 0.00 65 1021.2
20260503032954 17 78 1.6 3.2 0.00 0.00 0.00 63 1021.0
20260503032452 17 138 3.2 3.2 0.00 0.00 0.00 62 1020.8
20260503031950 18 124 1.6 3.2 0.00 0.00 0.00 61 1020.9
20260503031448 18 121 3.2 3.2 0.00 0.00 0.00 60 1021.0
20260503030944 18 72 1.6 3.2 0.00 0.00 0.00 58 1020.9
20260503030440 19 113 0.0 1.6 0.00 0.00 0.00 56 1020.7
20260503025937 19 72 1.6 3.2 0.00 0.00 0.00 55 1020.6
20260503025434 19 147 3.2 3.2 0.00 0.00 0.00 56 1020.6
20260503024932 19 171 0.0 3.2 0.00 0.00 0.00 57 1020.7
20260503024428 20 138 3.2 4.8 0.00 0.00 0.00 56 1020.3
20260503023925 20 227 0.0 1.6 0.00 0.00 0.00 54 1020.6
20260503023422 20 165 1.6 3.2 0.00 0.00 0.00 55 1020.8
20260503022919 20 143 0.0 4.8 0.00 0.00 0.00 55 1020.6
20260503022414 20 89 0.0 3.2 0.00 0.00 0.00 55 1020.5
20260503021910 20 31 0.0 4.8 0.00 0.00 0.00 56 1020.5
20260503021406 21 20 0.0 3.2 0.00 0.00 0.00 58 1020.6
20260503020904 21 329 1.6 3.2 0.00 0.00 0.00 52 1020.3
20260503020402 21 233 3.2 3.2 0.00 0.00 0.00 53 1020.5
20260503015857 21 46 1.6 3.2 0.00 0.00 0.00 54 1020.5
20260503015355 21 253 4.8 4.8 0.00 0.00 0.00 51 1020.7
20260503014850 21 269 0.0 6.4 0.00 0.00 0.00 52 1020.7
20260503014348 21 180 3.2 3.2 0.00 0.00 0.00 54 1020.5
20260503013846 21 180 3.2 4.8 0.00 0.00 0.00 53 1020.7
20260503013342 21 196 1.6 8.0 0.00 0.00 0.00 53 1020.8
20260503012839 22 261 1.6 4.8 0.00 0.00 0.00 53 1020.7
20260503012337 22 251 3.2 4.8 0.00 0.00 0.00 53 1020.6
20260503011834 22 245 4.8 8.0 0.00 0.00 0.00 52 1020.7
20260503011331 22 288 1.6 4.8 0.00 0.00 0.00 53 1020.7
20260503010827 22 353 6.4 11.3 0.00 0.00 0.00 53 1020.6
20260503010325 22 345 0.0 8.0 0.00 0.00 0.00 53 1020.8
20260503005821 23 331 0.0 4.8 0.00 0.00 0.00 51 1020.7
20260503005319 23 272 6.4 8.0 0.00 0.00 0.00 49 1020.8
20260503004815 23 259 4.8 8.0 0.00 0.00 0.00 49 1020.8
20260503004313 23 13 3.2 4.8 0.00 0.00 0.00 51 1020.8
20260503003810 23 71 1.6 8.0 0.00 0.00 0.00 52 1020.7
20260503003307 23 339 4.8 11.3 0.00 0.00 0.00 52 1021.0
20260503002804 23 266 11.3 11.3 0.00 0.00 0.00 52 1020.8
20260503002300 23 338 4.8 8.0 0.00 0.00 0.00 53 1020.7
20260503001756 23 291 4.8 8.0 0.00 0.00 0.00 52 1020.7
20260503001253 23 299 3.2 12.9 0.00 0.00 0.00 52 1020.9
20260503000751 23 271 8.0 8.0 0.00 0.00 0.00 54 1020.7
20260503000248 23 269 0.0 4.8 0.00 0.00 0.00 54 1020.8
20260502235745 23 115 3.2 6.4 0.00 0.00 0.00 54 1020.9
20260502235243 23 267 0.0 3.2 0.00 0.00 0.00 55 1020.9
20260502234739 23 264 4.8 8.0 0.00 0.00 0.00 54 1021.2
20260502234236 24 293 1.6 6.4 0.00 0.00 0.00 53 1021.1
20260502233732 25 76 0.0 4.8 0.00 0.00 0.00 52 1021.2
20260502233229 25 66 0.0 3.2 0.00 0.00 0.00 53 1021.4
20260502232725 25 0 1.6 12.9 0.00 0.00 0.00 54 1021.5
20260502232222 25 86 3.2 3.2 0.00 0.00 0.00 54 1021.2
20260502231719 23 45 3.2 4.8 0.00 0.00 0.00 58 1021.2
20260502231217 24 269 1.6 8.0 0.00 0.00 0.00 56 1021.4
20260502230715 24 38 1.6 3.2 0.00 0.00 0.00 55 1021.4
20260502230213 24 16 3.2 3.2 0.00 0.00 0.00 54 1021.4
20260502225708 25 277 1.6 4.8 0.00 0.00 0.00 54 1021.6
20260502225206 25 162 0.0 3.2 0.00 0.00 0.00 53 1021.6
20260502224702 23 89 0.0 3.2 0.00 0.00 0.00 55 1021.5
20260502224159 24 186 3.2 4.8 0.00 0.00 0.00 56 1021.8
20260502223657 24 191 3.2 6.4 0.00 0.00 0.00 55 1021.9
20260502223155 23 63 4.8 8.0 0.00 0.00 0.00 56 1021.8
20260502222652 24 237 6.4 6.4 0.00 0.00 0.00 55 1021.9
20260502222148 24 44 0.0 3.2 0.00 0.00 0.00 55 1022.0
20260502221644 23 139 0.0 3.2 0.00 0.00 0.00 56 1022.1
20260502221141 23 185 3.2 3.2 0.00 0.00 0.00 56 1022.2
20260502220637 23 5 0.0 4.8 0.00 0.00 0.00 58 1022.3
20260502220134 22 16 3.2 4.8 0.00 0.00 0.00 60 1022.3
20260502215631 23 43 6.4 6.4 0.00 0.00 0.00 58 1022.3
20260502215128 23 245 4.8 4.8 0.00 0.00 0.00 56 1022.3
20260502214625 23 223 1.6 4.8 0.00 0.00 0.00 58 1022.2
20260502214122 22 351 1.6 4.8 0.00 0.00 0.00 59 1022.2
20260502213620 22 128 1.6 8.0 0.00 0.00 0.00 61 1022.6
20260502213116 22 69 0.0 6.4 0.00 0.00 0.00 62 1022.5
20260502212616 22 268 4.8 8.0 0.00 0.00 0.00 60 1022.4
20260502212113 23 21 1.6 4.8 0.00 0.00 0.00 58 1022.5
20260502211608 23 215 4.8 6.4 0.00 0.00 0.00 58 1022.5
20260502211106 23 343 3.2 6.4 0.00 0.00 0.00 60 1022.6
20260502210603 23 142 6.4 8.0 0.00 0.00 0.00 58 1022.5
20260502210100 22 159 1.6 4.8 0.00 0.00 0.00 59 1022.6
20260502205556 23 135 0.0 4.8 0.00 0.00 0.00 59 1022.7
20260502205054 22 339 3.2 8.0 0.00 0.00 0.00 61 1022.7
20260502204550 22 110 4.8 6.4 0.00 0.00 0.00 60 1022.7
20260502204048 22 318 3.2 4.8 0.00 0.00 0.00 62 1022.6
20260502203545 21 319 1.6 6.4 0.00 0.00 0.00 62 1023.0
20260502203042 22 336 4.8 6.4 0.00 0.00 0.00 60 1022.9
20260502202538 22 192 6.4 6.4 0.00 0.00 0.00 60 1023.2
20260502202036 21 219 4.8 8.0 0.00 0.00 0.00 63 1023.2
20260502201532 22 62 4.8 6.4 0.00 0.00 0.00 61 1023.1
20260502201029 21 163 3.2 4.8 0.00 0.00 0.00 62 1023.3
20260502200524 21 116 3.2 4.8 0.00 0.00 0.00 61 1023.3
20260502200022 21 26 3.2 3.2 0.00 0.00 0.00 62 1023.2
20260502195520 21 26 1.6 3.2 0.00 0.00 0.00 60 1023.6
20260502195015 20 83 1.6 3.2 0.00 0.00 0.00 64 1023.3